Portada
METAR-TAF:

METAR-TAF

Aeroports :

Meekatharra, Austràlia

latitud: 26-36-42S, longitud: 118-32-52E, altitud: 522 m

Observació

L'informe es va fer fa 39 minuts, a les 08:00 UTC
Vent 15 kt del Nord, variant entre Oest i Nord/Nord-Est
Temperatura 40°C
Humitat 14%
Pressió 1009 hPa
Visibilitat 10 km o més
Cel ennuvolat a una alçada de 12000 ft

METAR: YMEK 030800Z AUTO 01015KT 270V020 9999 // BKN120 40/07 Q1009

Hora: 16:39 (08:39 UTC)


TAF: manca

Observacions i pronòstics meteorològics de més de 4000 aeroports (METAR i TAF).

Les estacions disponibles són els punts grocs i vermells al mapa.

Posi el ratolí al punt desitjat per veure el nom de l'estació.

Feu clic per veure les observacions i els pronòstics meteorològics.

Per canviar el mapa: feu clic els botons verds amb una creu de color negre per apropar; al botó verd amb un guió per allunyar la imatge; o en les fletxes verdes per a mapes adjacents.


METAR-TAF: